Classifica maschile

Classifica maschile
POSIZIONEPETTORALECOGNOMENOMEANNOCATEGORIANOME TEAMTEMPOORA ARRIVODISTACCO
1481HAUSSDAVID1984S301:51:1418:07:09.0000:00:00
2164PESAVENTOFRANCO1997S1TRIATHLON 7C ASD01:52:5418:08:48.2500:01:40
310MOZZACHIODIELIA1993S1ASD SPEZIA TRIATHLO01:53:0118:08:55.9500:01:47
414KUROCHKINSERGIY1988S2GRANBIKE TRIATHLON01:53:3718:09:31.8500:02:23
57DALLA VENEZIAMARCO1994S1LIGER TEAM KEYLINE01:53:4618:09:40.4500:02:32
66CORRA'MARCO1995S1A.S.MINERVA ROMA01:54:4818:10:42.2000:03:34
75SALINIGABRIELE1982S470701:57:2818:13:22.2500:06:14
84HOFERDANIEL1983S3C.S.CARABINIERI01:58:0418:13:58.1000:06:50
915DE STALESANDREA1986S3A302:00:2218:16:16.6000:09:08
1027CAVINALUCA1989S2IMOLA TRIATHLON02:00:3118:16:25.9500:09:17
1113TORODANIELE1997S1THE HURRICANE S.S.D.02:00:5318:16:48.0500:09:39
1229FRACCAROBERTO1987S3DESENZANO TRIATHLON02:01:5718:17:51.6000:10:43
1345BARNABYSIMON1986S370702:03:2318:19:17.2000:12:09
1436MERAZZIGIANLUCA1993S1A302:03:4818:19:42.8000:12:34
1544MARCHETTIETTORE1987S3THE HURRICANE S.S.D.02:03:5318:19:47.3500:12:39
1617FINAZZIGIUSEPPE1982S470702:04:0018:19:54.8000:12:46
17104DOLCISTEFANO1994S1PADOVANUOTO TRI02:04:1018:20:04.8500:12:56
1822BLANDINAFRANCESCO1976M1CY LASER TRI SCHIO02:04:2218:20:16.8000:13:08
1935FAGHERAZZIALESSANDRO1986S3A302:04:3518:20:29.2000:13:21
2020CARIDIMATTEO1975M170702:04:4718:20:41.3000:13:33
2133FOPPOLOPIETRO1992S2STEEL T - BG02:05:1618:21:10.3500:14:02
22488VERZELLADAVIDE1999JUTHE HURRICANE S.S.D.02:05:2618:21:20.2500:14:12
2334SCHIAPPARELLIMARCO1977M1IRONBIELLA02:05:3218:21:26.1000:14:18
24527MORANIDAVIDE1986S3AZZURRA TRIATHLON TE02:05:4118:30:33.8500:14:27
2526BELLINZONAGABRIELE1981S4FREEZONE02:05:4218:21:36.7500:14:28
2641FERRARIMASSIMO1967M3FERALPI TRIATHLON02:06:0118:21:55.6000:14:47
27132BRAGAALESSANDRO1989S2NOVA TRIATHLON02:06:3818:22:32.1000:15:24
2830CEOLAMATTIA1988S2PADOVANUOTO TRI02:06:4318:22:37.5500:15:29
2919PETTINISIMONE1980S4ALBA TRI02:06:5418:22:48.6500:15:40
3042AGLIOMICHELE1982S4A.S.D. RHODIGIUM TEA02:07:0518:22:59.4000:15:51
31115CHIORBOLIGIANNI1970M2IRONBIELLA02:07:2418:23:18.5500:16:10
3257BONETTIEMILIANO1978S4GALILEO TRIATHLON02:07:4018:23:34.6000:16:26
3365MUTTIEMANUELE1989S2DOCTORBIKE TRIATHLON02:07:5818:23:52.1500:16:44
3476MELONIERMES1975M1DESENZANO TRIATHLON02:08:0918:24:03.4500:16:55
35489DAVIDECHRISTIAN1997S1THE HURRICANE S.S.D.02:08:1718:30:12.5000:17:03
3682DE FRANCESCODIEGO1980S4HK CASERTA TRIATHLON02:08:2218:24:16.5500:17:08
3732LAVELLIMASSIMO1975M1FREEZONE02:08:2918:24:23.4000:17:15
3874TROLESEMASSIMILIANO1980S4VERONA TRIATHLON02:08:4118:24:35.9500:17:27
3928SERRATOREANTONIO1991S270702:08:4518:24:39.1500:17:31
4067BORGHESIFABIO1984S3FREEZONE02:08:5118:24:45.6500:17:37
41567GIACOMELLIFABIO1981S4FREEZONE02:08:5218:33:44.7000:17:38
4290BONERFILIPPO1978S4PESCHIERA TRI02:08:5918:24:53.4500:17:45
4361VELLANOANDREA1975M1GRANBIKE TRIATHLON02:09:0618:25:00.3000:17:52
4460GASPARINICHRISTIAN1990S2TRAGUARDO VOLANTE02:09:2918:25:23.9500:18:15
45143LOVATISTEFANO MARIO1987S3A.S. AUTONOSATE02:09:3818:25:32.3500:18:24
4639GATTIMARCO1985S3OTRI 1 COMO02:09:4018:25:34.5500:18:26
47112SICHETTILORENZO1977M1THE HURRICANE S.S.D.02:10:0718:26:01.2000:18:53
48134NOBILEANDREA1970M2DDS02:10:0818:26:02.7500:18:54
49482KROMSKIYEVGENY1983S302:10:1418:32:09.9500:19:00
50731MASSIMIALBERTO1969M2SDS02:10:2518:38:19.7500:19:11
5159BENATTIMICHELE1991S2CUS TRENTO CTT02:10:2918:26:23.5000:19:15
5295TORTELLAGIACOMO1981S4PESCHIERA TRI02:10:2918:26:23.8500:19:15
5373GUALENIMARCO1974M1ASD 226 TRIATHLON V.02:10:3118:26:25.3500:19:17
5470BAZZOLIMARCO1983S3PESCHIERA TRI02:10:3818:26:32.8500:19:24
5581RUSSOROBERTO1977M1DESENZANO TRIATHLON02:10:4218:26:36.7000:19:28
5664GOMIERODAVIDE1989S2G.P. TRIATHLON02:10:5118:26:45.8500:19:37
5768CICCIARELLAGIUSEPPE1985S3VERONA TRIATHLON02:11:0918:27:04.0000:19:55
58126BARUZZIANDREA1981S4T. T. RAVENNA02:11:2418:27:18.6500:20:10
5978CAPPELLARIMARCO1985S3VERONA TRIATHLON02:11:2818:27:22.3500:20:14
6038CERCHIAROCRISTIAN1973M1NJOY TRI VA02:11:2918:27:23.7000:20:15
61113AVIVALENTINO1997S1TRAGUARDO VOLANTE02:11:5118:27:45.9500:20:37
6248CADEMARTORIROBERTO1992S2ZEROTRENTA TRIATHLON02:12:0118:27:55.2000:20:47
63148ODDOROBERTO GIOVANNI1977M1A.S.D. VARESE TRIATH02:12:0118:27:55.7000:20:47
6425FOGLIALUCA1994S1APD ANDREANA SACRA F02:12:1218:28:06.2500:20:58
65125CORDIBELLASTEFANO1981S4VERONA TRIATHLON02:12:1718:28:12.0500:21:03
6698NULLININO1966M3FREEZONE02:12:2118:28:16.0000:21:07
67150MARCIGAGLIAMATTIA1978S4PESCHIERA TRI02:12:2418:28:18.1500:21:10
68222ROSSOANDREA1980S4A.S.D. TORINO TRIATH02:12:2618:31:20.4500:21:12
6937BONETTICESARE1980S4TRIATHLON FAENZA02:12:3318:28:27.7000:21:19
7087VARESCHIMARCELLO1979S4VERONA TRIATHLON02:12:3518:28:29.5000:21:21
71103LANZADANIELE1979S4DESENZANO TRIATHLON02:12:3618:28:30.9500:21:22
72102CARAFFINIANDREA1980S4SPORT MANAGEMENT02:12:4118:28:35.8500:21:27
7371FELTREGIACOMO1974M1VERONA TRIATHLON02:12:4218:28:36.2000:21:28
74151ZECCHINASTEFANO1974M1S.S.D. SCHIANTARELLI02:12:4418:28:38.2500:21:30
7575BOTTURAANTHONY1971M2CUS FERRARA02:12:5418:28:48.3000:21:40
76159PAGANISTEFANO1989S270702:13:1018:29:04.6500:21:56
7777SOMMARUGAGIOVANNI1982S4TRIATHLON CREMONA ST02:13:1718:29:11.3000:22:03
78114FUMIALBERTO1984S3PPRTEAM02:13:1918:29:13.5500:22:05
7949CHIARAMIDAMICHELE1978S4RUN RAN RUN T02:13:3118:29:25.6500:22:17
80206BERTONMATTIA1980S4PADOVANUOTO TRI02:13:3218:32:26.6500:22:18
81486WEEKSTONY1971M202:13:3218:35:27.7500:22:18
8252CLARETTIROBERTO1970M2FREEZONE02:13:3618:29:30.1500:22:22
83207LANFRANCHIGAETANO1972M270702:13:4318:29:37.7500:22:29
84200GIANIFABIO1971M2PIANETA ACQUA02:13:4618:32:40.8500:22:32
85533RONDILONEANDREA1985S3AQUATICA TORINO S.D.02:14:1118:39:03.7000:22:57
86516CHIOLLEANDREA1988S2BUSTO ARSIZIO A.R.C.02:14:1118:39:03.8500:22:57
87142BORTOLETTOALBERTO1980S4CUS PADOVA A.S.D.02:14:2318:30:17.3500:23:09
8850FIOREPIERLUIGI1961M4PESCHIERA TRI02:14:2318:30:17.5500:23:09
8955MANFREDINIMAURIZIO1966M3TRIATHLON CREMONA ST02:14:3018:30:24.4500:23:16
90768WEILDANIEL1965M3DDS02:14:3118:42:25.3500:23:17
91128RIMOLIFRANCESCO1975M1TRI TEAM BRIANZA02:14:3318:30:27.5000:23:19
9299POLITIFABRIZIO1978S4SDS02:14:3618:30:30.1000:23:22
93124CRAPAROTTASAMUELE1974M1PROGETTO VISTA TRIAT02:14:4418:30:38.9000:23:30
94210LOMETTIROBERTO1972M2SPORTEGO TEAM02:14:5818:33:52.7500:23:44
95632PICCIONEGIANFRANCO1977M1TRIATHLON COLLI VELO02:15:0218:39:54.5500:23:48
96136DANESIFABIO1970M2TRIATHLON BERGAMO02:15:0418:30:58.1500:23:50
97160MARCHIONEANDREA1981S4FUMANE TRIATHLON02:15:0918:31:03.4500:23:55
98504BONINIDANIELE1991S2TTS02:15:1018:40:02.1500:23:56
99205ORTOLINAMATTEO1978S4VERONA TRIATHLON02:15:1518:34:09.6000:24:01
100270MASSANOGIANLUCA1983S370702:15:2418:34:18.3500:24:10
101544GHIRARDELLOLUCA1984S333 TT ASD02:15:2818:40:20.8500:24:14
10280SOSSELLADAVIDE1981S4CY LASER TRI SCHIO02:15:3818:31:32.9000:24:24
103145PENNISIDANIELE1974M1A.S.D. CANOTTIERI TI02:15:4118:31:35.1500:24:27
104105LUCCHINILUCA1976M1PESCHIERA TRI02:15:4118:31:35.2500:24:27
105240PRANSANIROBERTO1974M1T.T. CESENATICO02:15:4518:34:39.7000:24:31
106177CORTESEMARCELLO1971M2TRIATHLON ZOLA02:15:4618:34:40.3500:24:32
107162PALAZZODIEGO1975M1FERALPI TRIATHLON02:15:5618:31:50.5000:24:42
108661BRIGNOLISANDRO1975M1TRI RACE ROCK TEAM02:15:5818:43:52.9500:24:44
109554MARIETTACHRISTIAN1983S3CUNEO TRI02:16:0218:40:54.2000:24:48
11072CROTTISTEFANO1976M170702:16:1918:32:13.6000:25:05
11153CERNICCHIALESSANDRO1980S4TRI.RN.MAROSTICA02:16:2218:32:16.9500:25:08
11254CAROLAGIAN LUCA1968M2T. T. RAVENNA02:16:2318:32:17.7000:25:09
11388DALL'AGNOLAANDREA1988S2VERONA TRIATHLON02:16:2418:32:18.3000:25:10
114319VITTORIALIALBERTO1981S4CUS BRESCIA02:16:2818:35:22.6000:25:14
11589MORETTIALESSANDRO1971M2AQUATIC CENTER TRIAT02:16:3718:32:31.6500:25:23
116147VERZELETTIENRICO1969M2CUS BRESCIA02:16:3918:32:33.7500:25:25
117198MOTTAFRANCESCO1975M1THE HURRICANE S.S.D.02:16:4218:35:36.2500:25:28
11892CASARINIMASSIMILIANO1977M1MODENA TRIATHLON02:16:4818:32:42.2500:25:34
119184SCANZIANIMARCO1988S2A TEAM02:16:5318:35:47.5500:25:39
120118MARZOCCHIGIORGIO1960M4POL.CENTESE T&D02:16:5818:32:53.0000:25:44
121130CIANDRIDANIELE1972M2LIVORNO TRIATHLON02:17:1418:33:08.3000:26:00
12258ROMANGIULIO1973M1DESENZANO TRIATHLON02:17:2818:33:23.0500:26:14
123762MENOTTIMAURO1966M3EASTSIDE TRIATHLON02:17:3218:45:26.8500:26:18
12446ZAMPESEROSS1979S4TRIATHLON 7C ASD02:17:3818:33:32.1500:26:24
12594ROSSIFILIPPO1970M2VERONA TRIATHLON02:17:4418:33:38.7500:26:30
126494ZANCANIALESSANDRO1996S1THE HURRICANE S.S.D.02:17:4518:39:40.8500:26:31
127182CHIARINIMARCO1974M1AQUATIC CENTER TRIAT02:18:1818:37:12.7000:27:04
128663MARTELLINIROBERTO1974M1OLIMPIACOLLE02:18:2518:46:19.9500:27:11
12984IUSSIMONE1987S3POLISPORTIVA SAN VIT02:18:3218:34:26.6500:27:18
130511STACCHETTIALESSIO LAMBERTO1989S2BUSTO ARSIZIO A.R.C.02:18:3718:43:29.1500:27:23
13197DI LERNIASTEFANO1969M2SGM TRIATHLON02:18:4618:34:41.0500:27:32
132152BELOTTIRUDY1982S470702:18:5318:34:47.1500:27:39
133163MERLUZZIMANUEL1974M1UDINE TRIATHLON02:18:5518:34:49.4500:27:41
134141VENTURIPAOLO1980S4T.T. CESENATICO02:19:0118:34:55.3000:27:47
135277DONATIMATTEO1975M1TRIATHLON ZOLA02:19:1318:38:07.2000:27:59
136140LUISONLORIS1980S4CASTELFRANCO TRIATHL02:19:1318:35:07.6500:27:59
137158LOMONACOLORENZO1975M1PESCHIERA TRI02:19:1418:35:08.8500:28:00
138133ROSSIANDREA1984S3PRECISION TEAM02:19:2118:35:15.9500:28:07
139522GIAMBRUNIEDOARDO1987S3ASD SPEZIA TRIATHLO02:19:3018:44:22.1500:28:16
140555CANDONALBERTO1983S3CUS UDINE02:19:3818:44:30.7500:28:24
141249GIANELLINICOLA1974M1PESCHIERA TRI02:19:4218:38:36.1500:28:28
142100PAROLININICOLA1982S4VERONA TRIATHLON02:19:4418:35:38.5500:28:30
143530CALVIALBERTO1985S3STEEL T - BG02:19:4718:44:39.2000:28:33
144106ROLLOITALO1967M3FERALPI TRIATHLON02:19:4718:35:41.9000:28:33
145801GIANNECCHINIFRANCESCO1991S2INDIVIDUALE02:19:4818:47:43.0000:28:34
14624VENZIMATTEO1986S3CUS TRENTO CTT02:19:4918:47:43.1000:28:35
147109GELLIANDREA1973M1TRIATHLON CREMONA ST02:19:4918:47:43.3000:28:35
148223VALENTINILUCA1982S4T.T. CESENATICO02:19:5118:38:45.1000:28:37
149264LAZZARINIFEDERICO1988S2RUN RAN RUN T02:19:5318:38:47.5000:28:39
150593ZAINALUCA1980S4FIRENZE TRI02:19:5318:47:48.0000:28:39
151209FILIPPIIVANO1974M1VERONA TRIATHLON02:20:0218:38:56.9000:28:48
152154FANELLIMARCO1973M1TRIATHLON FAENZA02:20:1218:36:07.0500:28:58
153101ABATIALBERTO1980S470702:20:1518:36:09.9500:29:01
154576CASNICOLEONARDO1981S4FREEZONE02:20:1918:45:11.4500:29:05
155588DE MICHELEVINCENZO1980S4BUSTO ARSIZIO A.R.C.02:20:2518:45:18.0500:29:11
156183MARCHIMATTEO1980S4G.S. BARDOLINO02:20:2918:39:23.2500:29:15
15785PIGNOTTISTEFANO1984S3CESENA TRIATHLON02:20:3518:36:29.6500:29:21
158513PIVAMATTIA1989S2FERSENTRI A.S.D.02:20:4318:45:35.9000:29:29
159271DI PASQUALEMARCO1984S3TRI ALTO ADIGE02:20:4618:39:40.6500:29:32
160671ZURLOLORENZO1974M1MAS TRIATHLON02:20:5018:48:44.3500:29:36
161175VACCHIMATTEO1973M1CUS FERRARA02:20:5218:39:46.6000:29:38
162691BULESSISTEFANO1972M2TRIATHLON MOTIVATION02:20:5518:48:49.8000:29:41
163294MELETTILUIGI1968M2MODENA TRIATHLON02:21:0118:39:56.0500:29:47
164543RANCATIMARCO1984S3NJOY TRI VA02:21:0418:45:56.7000:29:50
165534BONSIGIUSEPPE1985S3ASD 226 TRIATHLON V.02:21:0918:46:02.0000:29:55
166189BROTTOCRISTIAN1975M1VERONA TRIATHLON02:21:1818:40:12.1500:30:04
167199ROSSIDIEGO1985S3ASD SPEZIA TRIATHLO02:21:2118:40:15.7500:30:07
168512PERLODAVIDE1989S2GRANBIKE TRIATHLON02:21:2518:46:17.2000:30:11
169505MARCHIVITTORIO1991S2VERONA TRIATHLON02:21:3018:46:22.7500:30:16
170192GIOVANNOZZILORENZO1969M2DESENZANO TRIATHLON02:21:3918:40:33.3000:30:25
171156CANTARELLADAVIDE1978S4VERONA TRIATHLON02:21:4818:37:42.4500:30:34
172262DE CILLIAALESSANDRO1966M3CUS UDINE02:21:5218:40:46.9000:30:38
173211ORLANDISTEFANO1966M3MB TRIATHLON02:21:5418:40:48.8500:30:40
174569LA GIOIAMASSIMO1981S4TRIIRON02:21:5518:46:47.1500:30:41
175170CARRARINIMAURO1980S4CY LASER TRI SCHIO02:21:5518:40:49.4000:30:41
176232BREROSTEFANO1976M1IRONBIELLA02:21:5918:40:53.1000:30:45
177380ZANOTTIALESSANDRO1975M1FUMANE TRIATHLON02:22:0218:43:57.3000:30:48
178179MELOTTIPAOLO1969M2TRIATHLON COLLI VELO02:22:0718:41:01.5000:30:53
179239FILIPPINISTEFANO1989S2FERALPI TRIATHLON02:22:0918:41:03.3000:30:55
180575PIZZAMIGLIOANDREA1981S4RASCHIANI TRI PAVESE02:22:1318:47:05.9500:30:59
181258CINQUETTILUCIO1963M3FUMANE TRIATHLON02:22:1418:41:08.2000:31:00
182341JOTAZANDREA1982S4PROPATRIA MILANO02:22:1918:44:14.7000:31:05
18393COLETTOGIANMARIA1979S4OTRI 1 COMO02:22:1918:38:14.0000:31:05
184552TEMANI MOSCHETTIMATTEO1983S3TRIATHLON BERGAMO02:22:2118:47:14.0000:31:07
185586CANDELOROGIUSEPPE1980S4THE HURRICANE S.S.D.02:22:2518:47:17.4500:31:11
186279BARISGIANMARIA1970M2PIACENZA TRI VIVO02:22:3118:41:26.0500:31:17
187248MORIGGIMIRKO1975M1TRIATHLON BERGAMO02:22:3818:41:32.4000:31:24
188599CALINILORENZO1979S4DESENZANO TRIATHLON02:22:4318:47:35.5000:31:29
189424ABBONDANZAMARCO1986S3T.T. CESENATICO02:22:5718:44:52.1500:31:43
190579ORIANIALDO1981S4BUSTO ARSIZIO A.R.C.02:22:5718:47:49.2500:31:43
191285MOROTTIDARIO1966M3OLIMPIC TRIATHLON02:23:0618:42:00.3500:31:52
192606CAVOLIMARCO1978S4ATL. MDS PANARIAGROU02:23:0618:47:58.4500:31:52
193172CASSAGHIDAVIDE1981S4A.S.D. VARESE TRIATH02:23:0918:42:04.0000:31:55
194214ZELLIGIANLUCA1973M1THE HURRICANE S.S.D.02:23:2918:42:23.3500:32:15
195375DALL'AGNOLAMARCO1962M4VERONA TRIATHLON02:23:2918:45:24.9000:32:15
196129DOSSELLIANGELO1960M470702:23:4018:39:34.6500:32:26
197121CARNEVALINIMICHELE1972M2CANDIA TRIATHLON02:23:4218:39:36.6000:32:28
198315CARMINEARONNE FILIPPO1984S3VTT02:23:4518:42:39.4000:32:31
199221BEZZECCHIFABRIZIO1974M1MODENA TRIATHLON02:23:5618:42:50.5000:32:42
200208RUSSOBARTOLOMEO1987S3DESENZANO TRIATHLON02:23:5718:42:51.4000:32:43
201343PETRECCAMASSIMILIANO1971M2GRANBIKE TRIATHLON02:23:5718:45:52.7500:32:43
202829ALBAPAOLO1968M2INDIVIDUALE02:24:0618:52:00.8500:32:52
203194FRASSATIANDREA1971M2IRONBIELLA02:24:1018:43:04.2500:32:56
204805MAFFIOLETTIFABIO1984S3INDIVIDUALE02:24:1118:52:05.9000:32:57
205313ARRIGONIPAOLO1983S3SPORTEGO TEAM02:24:1218:43:06.7500:32:58
206123ONGARIALBERTO1974M1AQUATIC CENTER TRIAT02:24:1318:40:07.8500:32:59
207706BERNARDICHRISTIAN1971M2TRIATHLON FAENZA02:24:1518:52:09.2500:33:01
208825CINTURRINOCARMELO1970M2INDIVIDUALE02:24:1818:52:12.7500:33:04
209273CILLANIRAUL1958M4CUS FERRARA02:24:1918:43:13.3500:33:05
210616ANTONIONEIVAN1978S4SPORTEGO TEAM02:24:2318:49:15.3500:33:09
211227ROMANIMATTEO1983S3DESENZANO TRIATHLON02:24:2318:43:17.6000:33:09
212171RANDOMATTEO1980S4VERONA TRIATHLON02:24:2518:43:19.7500:33:11
213750BOSIODOMINIQUE1967M3BRESSANONE NUOTO02:24:3118:52:25.9500:33:17
214216ORSATOGIANCARLO1973M1CY LASER TRI SCHIO02:24:3718:43:31.9500:33:23
215748RACCHELLIOLIVIERO W.1968M2HAPPY RUNNER CLUB02:24:3718:52:32.0500:33:23
216326FORNASATIMATTEO1976M1RASCHIANI TRI PAVESE02:24:3918:43:33.6500:33:25
217219TODESCOLUCA1987S3ASD VICENZA TRIATHLO02:24:4018:43:34.4500:33:26
218255CICOGNANINICOLAS1991S2TRIATHLON FAENZA02:24:4718:43:41.5000:33:33
219275DE BENIEDOARDO1991S2MB TRIATHLON02:24:4918:43:43.1000:33:35
220213BEGHINIMASSIMO1974M1ASD SPEZIA TRIATHLO02:24:5018:43:45.0500:33:36
221153PINALIENRICO1971M2VERONA TRIATHLON02:24:5818:40:52.5500:33:44
222618SAMPO'LUCA PAOLO1977M1TTS02:25:0018:49:52.9000:33:46
223528SCOTTIALBERTO1986S3S.S.D. SCHIANTARELLI02:25:0218:49:54.2500:33:48
224592SCHIVARDIALBERTO DUILIO1980S4OLIMPIC TRIATHLON02:25:0518:49:57.9000:33:51
225508ROSSISIMONE1990S2ASD VICENZA TRIATHLO02:25:0818:50:00.9000:33:54
226411TESTAMARCO1985S3TRIATHLON BERGAMO02:25:1218:47:07.1500:33:58
227137AIELLIANTONIO1980S4THE HURRICANE S.S.D.02:25:1318:41:07.7500:33:59
228234CELEBRESAVERIO1980S4THE HURRICANE S.S.D.02:25:1618:44:10.5000:34:02
229193PEZZUCCHIAMOS1969M2ASD 226 TRIATHLON V.02:25:2518:44:19.3000:34:11
230108REANDREA1963M3RASCHIANI TRI PAVESE02:25:2718:41:21.6500:34:13
231173ANTONINIMASSIMO1972M2NJOY TRI VA02:25:3018:44:24.8500:34:16
232229GHIRINGHELLISTEFANO1987S3A.S.D. VARESE TRIATH02:25:3118:44:25.1500:34:17
233510CONTESINIPETER1990S2FERALPI TRIATHLON02:25:3618:50:28.6000:34:22
234231BIONDANIDAVIDE1968M2MB TRIATHLON02:25:4018:44:34.7000:34:26
235619BONICELLIMICHELE1977M1STEEL T - BG02:25:4018:50:33.0000:34:26
236444FRANCHINIDOMENICO1960M4AQUATICA TORINO S.D.02:25:4218:47:37.3500:34:28
237506GABRIELIALESSANDRO1991S2A.S.D. RHODIGIUM TEA02:25:5018:50:42.3500:34:36
238778ARISIGIUSEPPE1964M3VIADANA TRIATHLON02:25:5318:53:47.2500:34:39
239186GOGELEGEORG1981S4SCM - TRIATHLON02:25:5418:44:48.5500:34:40
240417SUSINIGIOVANNI1969M2THE HURRICANE S.S.D.02:26:0118:47:56.7500:34:47
241327MAZZUCATONICOLA1983S3CUS PADOVA A.S.D.02:26:0218:44:57.0500:34:48
242111PATERLINIMATTEO1976M1GALILEO TRIATHLON02:26:1318:42:07.7000:34:59
243726TESTALUCA1970M2SARONNO TRIATHLON02:26:1518:54:09.3000:35:01
244483SEKORANJAJANEZ1982S402:26:2718:48:22.3500:35:13
245338SARTILUCA1989S2VERONA TRIATHLON02:26:3218:48:28.0500:35:18
246228CONTARDIANDREA1979S4NJOY TRI VA02:26:3718:45:31.7500:35:23
247324PERLODANIELE1980S4GRANBIKE TRIATHLON02:26:4318:45:37.6000:35:29
248751CAPOZZAMIRCO1967M3ASD SPEZIA TRIATHLO02:26:4818:54:43.0000:35:34
249501UBOLDILUCA1992S2OTRI 1 COMO02:26:4918:51:41.5000:35:35
250230ANGELINOALBERTO1971M2IRONBIELLA02:26:5818:45:52.9000:35:44
251286BAZZANMATTEO1975M1A.S.D. RHODIGIUM TEA02:27:0418:45:58.3500:35:50
252339BORDIGNONNICOLA1976M1VERONA TRIATHLON02:27:0518:49:01.0500:35:51
253309PAGANIANTONIO1966M3FREEZONE02:27:1118:46:05.8000:35:57
254374TONGIANIFRANCESCO1975M1ASD SPEZIA TRIATHLO02:27:2118:49:16.8500:36:07
255524MOGLIAGIAN PAOLO1987S3A.S.D. 3T02:27:2618:52:18.9500:36:12
256705TEMPORINNICOLA1972M2A.S.D. RHODIGIUM TEA02:27:3018:55:25.0500:36:16
257292DELAITIGIANFRANCO1971M2FERRARA TRIATHLON02:27:3118:46:25.1000:36:17
258119REBECCHIFABIO1986S3ATL. MDS PANARIAGROU02:27:3418:43:28.8000:36:20
259320CENACCHIALESSANDRO1971M2GRANBIKE TRIATHLON02:27:3818:46:32.3500:36:24
260276CARLINIDOMENICO1972M2FERALPI TRIATHLON02:27:4118:46:35.2500:36:27
261220ROSSILUCA1983S3CINGHIALI MANNARI02:27:4118:46:35.8000:36:27
262272ANTIGAGIANLUCA1974M1A302:27:4718:46:41.5500:36:33
263419FACCHINELLONICOLA1982S4CUS PADOVA A.S.D.02:27:5018:49:46.0500:36:36
264169BOLONGAROGIOVANNI1969M2TRILAKE02:27:5918:46:54.0500:36:45
265185AGOSTINIANDREA1970M2T.T. CESENATICO02:28:0018:46:54.6000:36:46
266295BRACCICRISTIAN1971M2T.T. CESENATICO02:28:0018:46:54.6500:36:46
267340FINETTOALBINO1965M3FUMANE TRIATHLON02:28:0518:50:00.2500:36:51
268236MATTEOLIANDREA1975M1EMPOLI TRIATHLON02:28:0618:47:00.8500:36:52
269161FASOLIDIEGO1973M1PESCHIERA TRI02:28:1018:44:04.9500:36:56
270280GAUDENZIPAOLO1983S3TRIATHLON CREMONA ST02:28:1318:47:07.9500:36:59
271479COURVOISIERCEDRIC1984S302:28:1518:50:10.1500:37:01
272682ROSSICURZIO1973M1TRI EVOLUTION02:28:2118:56:16.0500:37:07
273685LEVEGHIIVAN1973M1FERSENTRI A.S.D.02:28:2418:56:18.6000:37:10
274226LUBNERFABRIZIO VITTORIO JA1970M2ROAD RUNNERS02:28:2918:47:23.8500:37:15
275281VISCOMILUCIANO1987S3BORGA CYCLES02:28:3018:47:24.6000:37:16
276426TORTIMANICOLA1970M2PESCHIERA TRI02:28:3818:50:33.7500:37:24
277323AJMARANDREA1970M2AQUATICA TORINO S.D.02:28:3918:47:33.4000:37:25
278304CALOSIDANIELE1973M1VERONA TRIATHLON02:28:4118:47:35.8500:37:27
279502SCAGLIARINIGIACOMO1992S2POL.CENTESE T&D02:28:4218:53:34.6000:37:28
280168GOTTARDISTEFANO1962M4DESENZANO TRIATHLON02:28:4518:47:39.1500:37:31
281245PARIZZIFABIO1967M3RASCHIANI TRI PAVESE02:28:4718:47:41.7000:37:33
282284BOLZACCHINIFABIO1976M1PESCHIERA TRI02:28:4718:47:42.0500:37:33
283640CORTUCCICRISTIANO1976M1CANDIA TRIATHLON02:28:4918:53:41.2500:37:35
284546MATTEIDAVIDE1984S3NJOY TRI VA02:28:5018:53:42.6000:37:36
285535BELLINGHIGIAN ELIA1985S3+KUOTA02:28:5118:53:43.3000:37:37
286298ROSSIFERDINANDO1960M4TRI TEAM BRIANZA02:29:1918:48:13.2500:38:05
287814GUSSNIGFLORIAN1979S4INDIVIDUALE02:29:2518:57:19.5500:38:11
288217MAGAGNOLIANDREA1971M2PORTA SARAGOZZA BO02:29:2718:48:21.9000:38:13
289291PIOVANMAURIZIO1977M1A.S.D. RHODIGIUM TEA02:29:2818:48:22.8500:38:14
290290BRONDANIIGOR1979S4IRONBIELLA02:29:3018:48:24.4000:38:16
291557BRIGANTIEGHLIS1982S4T.T. CESENATICO02:29:3518:54:27.4500:38:21
292827DEL RIOANDREA1969M2INDIVIDUALE02:29:3818:57:32.1000:38:24
293507BERTUZZOGIANLUCA1991S2DESENZANO TRIATHLON02:29:4018:54:32.1500:38:26
294256PLANAMENTEANTONIO1960M4STEEL T - BG02:29:4218:48:36.1500:38:28
295517ROSSETTIMATTIA1988S2S.S.D. SCHIANTARELLI02:29:4218:54:34.9500:38:28
296499DOMENICALEANDREA1993S1OTRI 1 COMO02:29:4418:54:36.2500:38:30
297693MIGLIORATIPIERLUIGI1972M2TEAM BIKE GUSSAGO AS02:29:5018:57:44.5000:38:36
298806FRIGERIOMARCO1984S3INDIVIDUALE02:29:5218:57:46.6500:38:38
299495DOSSIUMBERTO1994S170702:30:1018:52:05.3500:38:56
300289BORGHESIDIEGO1971M2NJOY TRI VA02:30:1418:49:09.0000:39:00
301251LATTUCAGERLANDO1974M1OTRI 1 COMO02:30:1918:49:14.0500:39:05
302330NICCOLAIVALERIO1988S2ASD SPEZIA TRIATHLO02:30:2218:49:16.9000:39:08
303312BOSSIWALTER GIUSEPPE1965M3HAPPY RUNNER CLUB02:30:2718:49:21.3000:39:13
304785SOFIAROBERTO1962M4ASD CNM TRIATHLON02:30:2918:58:23.6000:39:15
305780PAROLIERCOLE1963M3FREEZONE02:30:4118:58:35.4000:39:27
30686ROSSIALESSANDRO1978S4CY LASER TRI SCHIO02:30:4218:46:36.2500:39:28
307265ZAFFAINAMARIUCCIO1971M2VERONA TRIATHLON02:30:4218:49:36.6000:39:28
308597CRIVELLARIENRICO1979S4A.S.D. RHODIGIUM TEA02:30:4618:55:38.9000:39:32
309138ERCULIANINICOLA1971M2PESCHIERA TRI02:30:5418:46:48.4500:39:40
310531DECO'ANDREA1985S3AQUATIC CENTER TRIAT02:30:5518:55:47.8500:39:41
311480DUFFYTONY1959M402:30:5718:52:52.9000:39:43
312724FAVELLALUCA1970M2VIADANA TRIATHLON02:31:0118:58:55.8500:39:47
313311LIVIERIEMANUELE1982S4SBR 3ATHLON02:31:0118:49:55.9000:39:47
314680BOMBARAMICHELE1974M1AQUATICA TORINO S.D.02:31:0518:58:59.6500:39:51
315283PESCECORRADO1965M3VERONA TRIATHLON02:31:1018:50:04.2000:39:56
316300BASSANJURI TEBALDO1976M1RASCHIANI TRI PAVESE02:31:1218:47:06.2500:39:58
317225LO PARCOALESSANDRO1973M1VERONA TRIATHLON02:31:1318:50:07.8500:39:59
318155ORLANDIGREGORIO1980S4CASTELFRANCO TRIATHL02:31:1318:47:07.9500:39:59
319365BERNARDISTEFANO1981S4VALBOSSA TRIATHLON02:31:1418:53:09.5500:40:00
320418ASSOLARISTEFANO1964M3TRIATHLON BERGAMO02:31:1618:53:11.4500:40:02
321568BEGHETTOGIOVANNI1981S4ASD VICENZA TRIATHLO02:31:1718:56:09.8000:40:03
322819PULCINIALESSANDRO1975M1INDIVIDUALE02:31:1918:59:13.4000:40:05
323542BIONDIFABIO1984S3T.T. CESENATICO02:31:2018:56:12.6500:40:06
324416GAIERAGIANLUIGI1975M1A.S. AUTONOSATE02:31:2018:53:15.9000:40:06
325736MAFFIOLIMASSIMILIANO1969M2NJOY TRI VA02:31:2118:59:15.4500:40:07
326325GALLOCCHIOCRISTIAN1982S4VALBOSSA TRIATHLON02:31:2118:50:16.0500:40:07
327763GUIDETTIMAURO1966M3SAVONA TRIATHLON02:31:2418:59:18.3000:40:10
328235MARABELLODAMIANO1977M1VERONA TRIATHLON02:31:2718:50:21.2000:40:13
32991BENZIGIANLUCA1973M1ASD CNM TRIATHLON02:31:3018:47:24.1500:40:16
330243MALTESEBIAGIO1961M4MODENA TRIATHLON02:31:3118:50:25.9000:40:17
331714CARNISELLICRISTIAN1971M2PROPATRIA MILANO02:31:3718:59:32.0000:40:23
3329FONTANADANIEL1975M1DDS02:31:3918:47:33.3000:40:25
333436LONGOROBERTO1973M170702:31:4118:53:36.5500:40:27
334620DURBANOALESSANDRO1977M1CUNEO1198 TRITEAM02:31:4218:56:34.3500:40:28
335252MONTANARILUCA1968M2CALYPSO TRIATHLON02:31:4618:50:40.5000:40:32
336122MAGHINIMARCO VALERIO1981S4SGM TRIATHLON02:31:5118:47:45.5500:40:37
337636ANTONELLILUIGI1976M1ROAD RUNNERS02:31:5418:56:46.8000:40:40
338713BRUNELLIARNAUD1971M2FREEZONE02:31:5518:59:49.4000:40:41
33996MARIPAOLO1973M1VALTELLINA TRIATHLON02:31:5818:47:52.4000:40:44
340515BERGAGLIOSIMONE1988S2PROPATRIA MILANO02:32:0618:56:58.3000:40:52
341333FERROPAOLO1962M4BUSTO ARSIZIO A.R.C.02:32:0718:54:02.1500:40:53
342662ABENIMIRKO1975M1TRIATHLON CREMONA ST02:32:1219:00:07.0500:40:58
343187PIATTOLIMAURIZIO1969M2MERAVIGLIE TRIATHLON02:32:1318:51:07.9000:40:59
344583LUNARDINIMARCELLO1980S4T.T. CESENATICO02:32:1418:57:07.0000:41:00
345405CALANCHIMICHELE1965M3TRAGUARDO VOLANTE02:32:1918:54:14.4500:41:05
346317PICCOLOLUCA1972M2T.T. CESENATICO02:32:2018:51:15.0000:41:06
347196TESSAROLUCA1969M2HAPPY RUNNER CLUB02:32:2218:51:16.5000:41:08
348253BALESTRIEROROBERTO1967M3FUMANE TRIATHLON02:32:2518:51:19.6500:41:11
349686MICHELUTTIMICHELE1973M1CUS UDINE02:32:2519:00:19.8500:41:11
350359MOSCONILUCA1973M1SPORTSLIFE02:32:2718:54:22.4000:41:13
351589BARBUZZIVINCENZO1980S4BUSTO ARSIZIO A.R.C.02:32:3018:57:22.5500:41:16
352698CELLEGHINRICCARDO1972M2CASTELFRANCO TRIATHL02:32:3019:00:24.6000:41:16
353282LEPOREENRICO1971M2NJOY TRI VA02:32:3018:51:24.7500:41:16
354611PERDONCINANDREA1978S4TRI.RN.MAROSTICA02:32:3318:57:25.2500:41:19
355463GAVIRAGHIGIANLUCA1967M3DE RAN CLAB02:32:3518:54:30.1000:41:21
356635MONTEVECCHIMARCO1976M1TRIATHLON FAENZA02:32:3718:57:29.9500:41:23
357565MARCHINIALESSANDRO1982S4T.T. CESENATICO02:32:3818:57:30.8500:41:24
358582DI FLUMERIGIOVANNI1980S4ATL. MDS PANARIAGROU02:32:4218:57:34.4000:41:28
359364GOZZOMASSIMO1962M4CUS FERRARA02:32:4618:54:41.7000:41:32
360668GREGUOLDOMAURIZIO1974M1BUSTO ARSIZIO A.R.C.02:32:4819:00:42.4500:41:34
361660PAIARDIMAURIZIO1975M1TRIATHLON CREMONA ST02:32:4818:57:40.7500:41:34
362624BRESCIANIROBERTO1977M1FERALPI TRIATHLON02:32:5018:57:42.5000:41:36
363537TEODORANIGABRIELE1985S3T.T. CESENATICO02:32:5118:57:43.3500:41:37
364628TEODORANIMICHELE1977M1T.T. CESENATICO02:32:5118:57:43.3500:41:37
365604FESTIANDREA1979S433 TT ASD02:32:5318:57:46.0000:41:39
366347COMENCINISTEFANO1978S4MB TRIATHLON02:32:5618:54:51.7500:41:42
367840PASCALEFEDERICO1989S2INDIVIDUALE02:32:5919:00:53.7000:41:45
368798DI BENEDETTODARIO1956M5IRONBIELLA02:33:0219:00:56.1500:41:48
369398VACCAROGIANFRANCO1980S4SGM TRIATHLON02:33:0218:54:57.2000:41:48
370613SICARIMARCO1978S4NJOY TRI VA02:33:0418:57:56.1000:41:50
371470BOZZINILUCA1966M3DUEMMECORSE02:33:1018:55:05.8000:41:56
372602BUONOANDREA1979S4A.S.D. TORINO TRIATH02:33:1518:58:07.9000:42:01
373215SELLASTEFANO1965M3CY LASER TRI SCHIO02:33:1518:52:09.9500:42:01
374246BERTAZZONIPAOLO1966M3CANOTRIATHLON02:33:2118:52:15.9000:42:07
375257BRINTAZZOLIANDREA1969M2T302:33:2618:52:20.7500:42:12
376617CANZINIFABIO1978S4TRIATHLON FAENZA02:33:3318:58:25.6000:42:19
377204FOSCARINIMASSIMILIANO1969M2PADOVANUOTO TRI02:33:4518:52:40.0500:42:31
378337MAGISTRIAMOS1964M3OXYGEN TRIATHLON02:33:5218:55:47.3500:42:38
379560DE ANGELISMATTEO1982S4T.D. RIMINI02:33:5418:58:46.1500:42:40
380771VISCAALESSANDRO1965M3FLIPPER EIFFEL ASCOL02:33:5519:01:49.1000:42:41
381627PASSARINISTEFANO1977M1VERONA TRIATHLON02:34:0418:58:56.7000:42:50
382525CALZAVARANICOLO'1986S3PADOVANUOTO TRI02:34:0418:58:57.0000:42:50
383817CERPELLETTIDAVIDE1978S4INDIVIDUALE02:34:1119:02:05.8500:42:57
384433LUPINIGIORGTIO1957M5STEEL T - BG02:34:1318:56:08.1500:42:59
385149STEFANIEDOARDO1981S4LUCCA TRIATHLON ASD02:34:1618:50:10.5500:43:02
386816LANZADAMIANO1979S4INDIVIDUALE02:34:1619:02:11.0500:43:02
387266TOMASINILUCA1983S3IRONMAX TEAM02:34:1718:53:11.2500:43:03
388269BORTOLASOMARCO1971M2DESENZANO TRIATHLON02:34:1818:53:12.6000:43:04
389378BINSTEFANO1965M3FERALPI TRIATHLON02:34:1818:56:13.8500:43:04
390366SCALVINIVALERIO1965M3TRAGUARDO VOLANTE02:34:2218:56:17.2000:43:08
391399DABRAZZINICOLA1984S3ZEROTRENTA TRIATHLON02:34:2518:56:20.4500:43:11
392594OLIVILUCA1980S4GALILEO TRIATHLON02:34:2518:59:17.7000:43:11
393689SALVIGIANFRANCO1972M1STEEL T - BG02:34:4419:02:38.7000:43:30
394701AMATIDANILO1972M2T.T. CESENATICO02:34:4419:02:39.0500:43:30
395342NATUZZIPIETRO1973M1RHO TRIATHLON CLUB02:34:5418:56:49.4000:43:40
396570BIGHELLIMICHELE1981S4PESCHIERA TRI02:34:5418:59:46.8000:43:40
397566PALINIDANIELE1982S4FREEZONE02:34:5718:59:49.4000:43:43
398321AIROLDIPAOLO1981S4ASD TEAM HIBISCUS02:34:5818:53:52.3000:43:44
399651ZANICHELLICRISTIAN1975M1CALYPSO TRIATHLON02:34:5818:59:50.7500:43:44
400553MONTILUCA1983S3NJOY TRI VA02:35:1319:00:05.9500:43:59
401549D'AGOSTINOMARCO1983S3TRI TEAM BRIANZA02:35:1619:00:08.3500:44:02
402634DEL PUNTAANDREA1976M1FIRENZE TRI02:35:1719:00:10.0000:44:03
403387SCUDIEROSTEFANO1972M2THE HURRICANE S.S.D.02:35:2918:57:24.7000:44:15
404670SCANDOLARAMASSIMO1974M1CASTELFRANCO TRIATHL02:35:3019:03:24.3500:44:16
405382MARANGONROBERTO1971M2PROPATRIA MILANO02:35:3118:57:26.6500:44:17
406376VACCHETTADANILO1965M3OASI LAURA VICUNA02:35:3818:57:33.9000:44:24
407775AGOSTINILUCA1965M3TRI TEAM BRIANZA02:35:4119:03:35.3500:44:27
408259VAZZOLERDOMENICO1970M2TEAM TRIATHLON PINAR02:35:4118:54:35.4500:44:27
409415AGNOLETTODAVIDE1984S3PADOVA TRIATHLON02:35:4418:57:39.3500:44:30
410288SCALELLASIMONE1968M2FIRENZE TRI02:35:5018:54:44.2000:44:36
411429ZAMMARCHIDANIELE1971M2T.T. CESENATICO02:35:5018:57:45.2500:44:36
412733MAFFONIMARCO1969M2ROAD RUNNERS02:35:5319:03:48.0000:44:39
413386TROMBINIALESSIO1975M1A.S.D. RHODIGIUM TEA02:35:5718:57:52.1000:44:43
414837CASTELLANIDAMIANO1989S2INDIVIDUALE02:35:5919:03:53.7500:44:45
415520MATTIGHELLOLUCA1987S347 ANNO DOMINI02:36:0119:00:54.0000:44:47
416406LUNANICOLA GIUSEPPE1974M1ASD VICENZA TRIATHLO02:36:1518:58:10.1000:45:01
417509ZUCCATOMASSIMO1990S2POLISPORTIVA SAN VIT02:36:2119:01:13.9500:45:07
418178BELLINICORRADO1964M3TRI TEAM BRIANZA02:36:2218:55:16.9000:45:08
419665GIUDICIANDREA1974M1OTRI 1 COMO02:36:2819:04:22.3000:45:14
420351FAVAMICHELE1972M2DUEMMECORSE02:36:3318:58:28.2000:45:19
421322SOTTANIGIACOMO1974M1EMPOLI TRIATHLON02:36:3818:55:33.0500:45:24
422328CANOSSINIROBERTO1974M1GALILEO TRIATHLON02:36:3918:55:33.4500:45:25
423675GUARNIERIALBERTO1974M1RASCHIANI TRI PAVESE02:36:4219:04:36.7500:45:28
42469FROSIOSTEFANO1972M2SGM TRIATHLON02:36:4818:52:42.1000:45:34
425389SCARMAGNANINICOLA1972M2MB TRIATHLON02:36:4818:58:43.9000:45:34
426310MARINANDREA1971M2A302:36:5418:55:49.0500:45:40
427212OLIARIRICCARDO1969M2DOLOMITICA NUOTO CTT02:36:5518:55:49.3500:45:41
428734CARDAZZIDAVIDE1969M2RASCHIANI TRI PAVESE02:36:5819:04:52.5500:45:44
429841CASETTADENIS1975M1TRITEAMPORDENONE02:37:0419:04:58.8500:45:50
430404BERNAMARCO1963M3IRONBIELLA02:37:0418:59:00.0000:45:50
431712SBRISSASTEFANO1971M2CASTELFRANCO TRIATHL02:37:0819:05:02.8000:45:54
432190VIANELLONICOLÒ1966M3MODENA TRIATHLON02:37:0918:56:03.4000:45:55
433201SERRIMICHAEL1982S4ATL. MDS PANARIAGROU02:37:1718:56:11.5500:46:03
434740FALOMOANDREA1968M2POLISPORTIVA SAN VIT02:37:2519:05:19.5500:46:11
435299BALDERIANDREA1963M3CUS FERRARA02:37:2718:56:21.9500:46:13
436357DI LIBORIOMASSIMO1961M4CALYPSO TRIATHLON02:37:3018:59:25.3500:46:16
437434ABATIRENÈ1984S3PORTA SARAGOZZA BO02:37:3518:59:30.9500:46:21
438371ANTONIOTTIETTORE1966M3IRONBIELLA02:37:4118:59:36.8500:46:27
439496BISOLANDREA1994S1A302:37:4319:02:35.7000:46:29
440803RAVASIODAVIDE1989S2INDIVIDUALE02:37:4919:05:43.1500:46:35
441373FUMANERIALESSANDRO1979S4FUMANE TRIATHLON02:37:5018:59:45.1500:46:36
442420ATERICLAUDIO1976M1A.S. AUTONOSATE02:37:5318:59:48.5000:46:39
443708TURCOPATRIZIO1971M2G.P. TRIATHLON02:37:5319:05:47.8500:46:39
444349CAVAGNINIALBERTO1967M3FREEZONE02:37:5418:59:49.2500:46:40
445573FRISONECHRISTIAN1981S4POLISPORTIVA SAN VIT02:37:5919:02:51.4500:46:45
446655CORSETTOSIMONE1975M1IRONBIELLA02:38:0219:02:54.9000:46:48
447345RUGENMARCO AMEDEO1965M3RHO TRIATHLON CLUB02:38:1019:00:05.4500:46:56
448791GUIZZIROBERTO1959M4TRIATHLON CONCESIO02:38:2219:06:16.8500:47:08
449681CARDOSIROBERTO1973M1LIVORNO TRIATHLON02:38:5319:06:47.7000:47:39
450191OLIVIERIALESSANDRO1970M2PESCHIERA TRI02:39:0018:57:54.1000:47:46
451727MALERBACARLO1970M270702:39:0519:06:59.8000:47:51
452812BENIGNICRISTIAN1980S4INDIVIDUALE02:39:1019:07:04.3500:47:56
453195ZENARIMARIO1962M4VERONA TRIATHLON02:39:1018:58:04.4000:47:56
454519BOMICHELE1988S2GRANBIKE TRIATHLON02:39:1419:04:07.0500:48:00
455360RAOENRICO1972M2GRANBIKE TRIATHLON02:39:1919:01:14.7000:48:05
456540GASPARETTOMASSIMO1984S3A.S.D. RHODIGIUM TEA02:39:2019:04:12.6000:48:06
457808FRIGERIOLUCA1982S4INDIVIDUALE02:39:2719:07:21.2000:48:13
458551GISABELLAGIANPAOLO1983S3IRONBIELLA02:39:2919:04:22.0500:48:15
459318CAPRAPAOLO1986S3FERALPI TRIATHLON02:39:3218:58:27.0000:48:18
460395POZZOSTEFANO1983S3IRONBIELLA02:39:4619:01:41.1500:48:32
461777DEFENDENTIIVAN1964M3RHO TRIATHLON CLUB02:39:4719:07:41.3500:48:33
462639LECCHINICOLA1976M1TRIATHLON BERGAMO02:39:4919:04:41.9500:48:35
463605RIGOMICHELE1979S4ASD VICENZA TRIATHLO02:39:5819:04:50.5500:48:44
464644BAUCERMATTEO1976M1EASTSIDE TRIATHLON02:40:0019:04:52.5500:48:46
465678PASETTOELIA1974M1VERONA TRIATHLON02:40:1519:08:09.5000:49:01
466367LONGOGIUSEPPE1972M2CINGHIALI MANNARI02:40:2219:02:17.4500:49:08
467541BASSETTIFRANCESCO1984S3NJOY TRI VA02:40:2419:05:16.7500:49:10
468536LASCAGIAMPAOLO1985S3CIVITANOVA TRIATHLON02:40:2819:05:20.1000:49:14
469174CIAMBELLOTTIALESSIO1988S2TRI EVOLUTION02:40:4318:59:37.4000:49:29
470422RONDIVIRGILIO1964M3TRIATHLON BERGAMO02:40:4719:02:42.7500:49:33
471756DE GIORGIDANIELE1966M3TRITEAMPORDENONE02:40:5319:08:47.9000:49:39
472303MERISIOLUCA1977M1TRIATHLON CREMONA ST02:41:0418:59:58.5000:49:50
473346GANDOLFINICOLA1981S4TRIATHLON CREMONA ST02:41:1219:03:07.5000:49:58
474412TOMELINIDANIELE1976M1VERONA TRIATHLON02:41:1619:03:11.2500:50:02
475316TANASIFABIO1964M3CUS UDINE02:41:2519:00:19.7500:50:11
476425PIRONDINIANDREA1965M3GRUPPO ETHOS RUNNING02:41:2619:03:21.9000:50:12
477669TOFFANINCRISTIANO1974M1VTT02:41:2819:09:23.0500:50:14
478308GHISANIRENATO1970M2TRIATHLON CREMONA ST02:41:3019:00:24.3000:50:16
479622BANFIALESSIO1977M1FREEZONE02:41:3819:06:30.4000:50:24
480363BORTOLETTOALESSANDRO1973M1CUS PADOVA A.S.D.02:41:3819:03:33.8500:50:24
481653CONTIALESSANDRO1975M1FRIESIAN TEAM02:41:4019:06:32.2500:50:26
482739BERGAMINIVAN1968M2CASTELFRANCO TRIATHL02:41:4319:09:37.4000:50:29
483538FERIOLIMARCO1984S3BORGA CYCLES02:41:5119:06:44.0500:50:37
484392TEALDICORRADO1987S3GRANBIKE TRIATHLON02:41:5719:03:52.5500:50:43
485242FORMOSAIAIN1970M2OXYGEN TRIATHLON02:41:5819:00:52.2000:50:44
486400FUSARIPAOLO1967M3ASD VICENZA TRIATHLO02:42:0519:04:00.6500:50:51
487820GREGORIMASSIMO1974M1INDIVIDUALE02:42:0719:10:01.6500:50:53
488423TOFFALORIANGELO1966M3TRI RACE ROCK TEAM02:42:1519:04:10.2500:51:01
4898FABIANALESSANDRO1988S2C.S.CARABINIERI02:42:1718:58:11.5000:51:03
490703BOTARELLINICOLA1972M2VAL DI MERSE TRIATHL02:42:1718:58:11.6500:51:03
491414CARINICRISTIAN1980S4DESENZANO TRIATHLON02:42:2419:04:19.2500:51:10
492329SEGATOEMANUELE1978S4SNEF SSD A R.L.02:42:2519:01:19.5500:51:11
493804ZANZOTTERAGUIDO1984S3INDIVIDUALE02:42:3019:10:24.7500:51:16
494794ZANETTAANTONIO1958M4ASD 226 TRIATHLON V.02:42:3119:10:25.6500:51:17
495590NADALDARIO1980S4TRITEAMPORDENONE02:42:4119:07:33.7500:51:27
496394ROTAGIANNI1958M4TRIATHLON BERGAMO02:42:4319:04:38.2500:51:29
497362DRINGOLILUCA1964M3EMPOLI TRIATHLON02:42:4819:04:43.1500:51:34
498839BAZZOLIADRIANO1959M4DESENZANO TRIATHLON02:42:4919:10:43.2000:51:35
499630STRANOROBERTO1977M1MODENA TRIATHLON02:42:5119:07:44.0500:51:37
500646SIMPAENRICO1976M1POLISPORTIVA FOSSALT02:42:5319:07:46.0500:51:39
501297ZANEENRICO1981S4CASTELFRANCO TRIATHL02:42:5519:01:49.4000:51:41
502305TOSIGIANNI1979S4T.T. CESENATICO02:42:5919:01:53.6500:51:45
503439TOSINIFABIO1971M2RASCHIANI TRI PAVESE02:43:0219:04:57.1500:51:48
504314POLLAENRICO1969M2CUS UDINE02:43:1019:02:04.9000:51:56
505401BACCILUCA1968M2RHO TRIATHLON CLUB02:43:1219:05:07.4000:51:58
506641STELLAROBERTO1976M1A.S.D. VARESE TRIATH02:43:1619:08:08.6500:52:02
507334PARMIGIANICHRISTIAN1976M1ASD CNM TRIATHLON02:43:1819:05:13.1000:52:04
508753MUSCONIMAURIZIO1967M3IMOLA TRIATHLON02:43:2019:11:14.1000:52:06
509353PADERNIENRICO1975M1OLIMPIC TRIATHLON02:43:2219:05:17.9500:52:08
510729PISCETTALORENZO1970M2OXYGEN TRIATHLON02:43:2719:11:21.2500:52:13
511707DE MARCHICLAUDIO1971M2OTRI 1 COMO02:43:2819:11:22.9000:52:14
512702ARREGHINIPAOLO1972M2CUS UDINE02:43:3019:11:24.5500:52:16
513368ZANELLAALESSANDRO1966M3VERONA TRIATHLON02:43:3219:05:27.3500:52:18
514484MULATTIERIVALERIO1979S402:43:3519:05:30.8500:52:21
515598DE STEFANISENRICO1979S4ROAD RUNNERS02:43:4419:08:36.9000:52:30
516612TOSIDAVIDE1978S4VTT02:43:5219:08:44.6500:52:38
517454PRAVETTONILORENZO1983S3TRI TEAM BRIANZA02:43:5819:05:53.2000:52:44
518385GUZZETTIMASSIMILIANO1978S4SARONNO TRIATHLON02:44:1419:06:09.3000:53:00
519461LANDONIGUIDO1969M2HAPPY RUNNER CLUB02:44:1719:06:12.8500:53:03
520674TOLUEMANUELE1974M1MODENA TRIATHLON02:44:1919:12:13.3500:53:05
521302MONTANARILUCA1978S4CUS FERRARA02:44:2219:03:16.2000:53:08
522730TERENZIANIMASSIMO1970M2ASD SPEZIA TRIATHLO02:44:2519:12:19.4500:53:11
523747REGANTINIWALTER1968M2TRIATHLON CREMONA ST02:45:0219:12:56.2500:53:48
524749MOROSATOSTEFANO1967M3T.D. CREMONA02:45:0819:13:02.7000:53:54
525626BENEDETTISTEFANO1977M1VERONA TRIATHLON02:45:1219:10:04.8000:53:58
526578SALAROLODAVIDE1981S4VERONA TRIATHLON02:45:1319:10:05.9500:53:59
527571MOTTAALESSANDRO1981S4TRIATHLON CREMONA ST02:45:2119:10:13.5000:54:07
528410MIMMOMICHELE1973M1CY LASER TRI SCHIO02:45:3719:07:32.4500:54:23
529742MERONIMASSIMO1968M2NJOY TRI VA02:45:3819:13:32.3000:54:24
530402TORRIANIALESSANDRO1979S4NJOY TRI VA02:45:4919:07:44.7500:54:35
531233ROMAGNOLIROBERTO1973M1PIACENZA TRI VIVO02:45:5419:04:49.0500:54:40
532391ZUCCHETENRICO1986S3ROAD RUNNERS02:45:5919:07:54.9500:54:45
533721LAZZARISALBERTO1970M2TEAM TRIATHLON PINAR02:46:0019:13:54.1500:54:46
534469DIANIWALTER1961M4ASD CNM TRIATHLON02:46:0319:07:58.3000:54:49
535356GIOANOLALUCA1975M1SAI FRECCE BIANCHE02:46:0419:07:59.2000:54:50
536377PELFERLUCA1978S4MERAVIGLIE TRIATHLON02:46:1619:08:11.9500:55:02
537332BORGHETTILEONARDO1983S3IRONLARIOTRIATH02:46:2119:08:16.5000:55:07
538656ARICINICOLA1975M1ZEROTRENTA TRIATHLON02:46:2519:11:17.5000:55:11
539718RIZZOLORENZO1970M2PADOVA TRIATHLON02:46:2719:14:22.0500:55:13
540379ERBISTICIRO1971M2TRAGUARDO VOLANTE02:46:3119:08:26.8500:55:17
541657CORSAROMARCO1975M1PROPATRIA MILANO02:46:3719:11:29.5500:55:23
542358BASILEVINCENZO1969M2CUS UDINE02:46:3819:08:33.3000:55:24
543354RONCADAENRICO1970M2FUMANE TRIATHLON02:46:3819:08:33.6500:55:24
544306MARROCCOLIGIUSEPPE1979S4IN SPORT SRL SSD02:46:4419:05:38.6500:55:30
545683CODEVILLAGIOVANNI1973M1RASCHIANI TRI PAVESE02:46:5319:14:47.5000:55:39
546529BIAGGIALBERTO1986S3SPORTEGO TEAM02:47:0019:11:52.3000:55:46
547587CERUTTIMATTEO1980S4SPORTEGO TEAM02:47:0019:11:52.4500:55:46
548676NIZZOLIGIANMARCO1974M1VERONA TRIATHLON02:47:0119:14:55.1500:55:47
549263NIZZOLIENRICO1977M1VERONA TRIATHLON02:47:0119:14:55.2000:55:47
550757CONCONIMASSIMILIANO1966M3NJOY TRI VA02:47:0619:15:00.2500:55:52
551393GROLLAFEDERICO1970M2VERONA TRIATHLON02:47:1019:09:05.4500:55:56
552813VIEILLEDENTGHISLAIN1979S4INDIVIDUALE02:47:1719:15:11.2500:56:03
553559CINGANOMANUEL1982S4ASD VICENZA TRIATHLO02:47:1919:12:11.9000:56:05
554421SUSTACLAUDIO1969M2TRIATHLON CREMONA ST02:47:3319:09:28.6500:56:19
555453MITTONSTEFANO1974M1IN SPORT SRL SSD02:47:3919:09:34.2000:56:25
556679SACCODANIELE1974M1OXYGEN TRIATHLON02:47:4119:15:35.7000:56:27
557432LOCATELLIMATTEO1969M2ASD CNM TRIATHLON02:47:5019:09:45.7000:56:36
558472RUVIOLIFILIPPO1970M2TRIATHLON CREMONA ST02:47:5219:09:47.3000:56:38
559765MIORANDIROBERTO1965M333 TT ASD02:47:5219:15:46.9000:56:38
560250GOTTARDOMARCO1972M2PADOVANUOTO TRI02:48:1319:07:07.4000:56:59
561658TENENTIGIANLUCA1975M1CANDIA TRIATHLON02:48:1319:13:05.5500:56:59
562784VIGONEENRICO1962M4ASD SPEZIA TRIATHLO02:48:2819:16:22.2500:57:14
563799DINIMARCO1954M5IRONMAX TEAM02:48:5119:16:45.1000:57:37
564381GHISALBERTIPIETRO1958M4TEAM BIKE GUSSAGO AS02:49:0419:10:59.8500:57:50
565695IANNUCCIGIANLUCA1972M2NJOY TRI VA02:49:0919:17:03.8000:57:55
566580GIANNONEGIUSEPPE1980S4PROPATRIA MILANO02:49:1119:14:04.0500:57:57
567218REINAVITTORIO1974M1OXYGEN TRIATHLON02:49:1419:08:08.9000:58:00
568761SILVESTRINIAGOSTINO1966M3NJOY TRI VA02:49:1619:17:10.9500:58:02
569596FAVINILUCA1980S4TRYLOGY02:49:1719:14:09.6000:58:03
570441GRANDOROBERTO1978S4REACTION02:49:2019:11:16.0000:58:06
571409VIGANO'AURELIO1964M3TRIATHLON BERGAMO02:49:4219:11:37.8500:58:28
572755CROSTASILVANO1966M3VALBOSSA TRIATHLON02:49:4419:17:38.5500:58:30
573796ALBONETTIROBERTO1957M5T.T. CESENATICO02:49:5919:17:53.3000:58:45
574767KERDILESHERVE'1965M3OXYGEN TRIATHLON02:50:0219:17:57.0000:58:48
575601RISITICIRO1979S4ASD CNM TRIATHLON02:50:1219:15:04.6500:58:58
576562BOTTEGAMICHE1982S4A302:50:1719:15:09.4500:59:03
577403GIANNINICLAUDIO1978S4ASD SPEZIA TRIATHLO02:50:2419:12:19.6000:59:10
578694EMMIMARIO1972M21A MISTRAL TRIATHLON02:50:2519:18:19.5500:59:11
579466RIZZATOMARCO EDOARDO1976M1CY LASER TRI SCHIO02:50:2919:12:24.6000:59:15
580448SIGNORELLIGIORGIO1971M2TRIATHLON BERGAMO02:50:5219:12:47.7500:59:38
581445CAVINAFULVIO1965M3GRANBIKE TRIATHLON02:50:5319:12:48.7000:59:39
582600TODESCHINIALESSANDRO1979S4TRIATHLON CONCESIO02:50:5919:15:51.8500:59:45
583754FONTANELLIRICCARDO1966M3G.P. TRIATHLON02:51:2519:19:19.4001:00:11
584823SAINIMIRKO1972M2INDIVIDUALE02:51:3819:19:32.8501:00:24
585435BERTASIMAURO1962M4TRIATHLON CONCESIO02:51:4719:13:42.8501:00:33
586700BIANCHETTIGIACOMO1972M2FREEZONE02:52:0519:19:59.1001:00:51
587396PERCIVALDIMIRCO1973M1RASCHIANI TRI PAVESE02:52:1119:14:06.9501:00:57
588532PRIORLUCA1985S3CASTELFRANCO TRIATHL02:52:1519:17:07.8501:01:01
589716TOGNOTTIAUGUSTO1971M233 TT ASD02:52:2119:20:15.6001:01:07
590672CERVIZZICHRISTIAN1974M1JCT VIGEVANO02:52:2319:20:17.7501:01:09
591361PIAZZASILVIO1969M2HAPPY RUNNER CLUB02:52:2519:14:20.5501:01:11
592787VAJENTEBRUNO1961M4CY LASER TRI SCHIO02:52:3119:20:25.4501:01:17
593503LORENZINSTEFANO1992S2A.S.D. VARESE TRIATH02:52:3219:17:24.9001:01:18
594790CORAZZALUCA1960M4HAPPY RUNNER CLUB02:52:4419:20:38.4001:01:30
595224MAGAGNOTTIMARCO1973M1PESCHIERA TRI02:52:4619:11:40.9501:01:32
596139MALUCELLIMARCO1963M3TRI-WINNER FOLIGNO02:53:1019:09:04.2001:01:56
597369MAGNANIGIANPAOLO1965M3SURFING TRI ROMAGNA02:53:1719:15:12.6501:02:03
598348TRAZZICLAUDIO1960M4VERONA TRIATHLON02:53:1819:15:13.3501:02:04
599581FRIGERIODANIELE1980S4OTRI 1 COMO02:53:2419:18:16.1501:02:10
600758BRUNO CICIGLIARICCARDO1966M3RHO TRIATHLON CLUB02:53:4319:21:37.9001:02:29
601692CASCINOGIOVANNI1972M2FIRENZE TRI02:53:4619:21:40.7501:02:32
602442GRANDIDENIS1970M2CUS FERRARA02:53:4719:15:42.9501:02:33
603459BERLENDISDIEGO1977M1PESCHIERA TRI02:53:4819:15:43.9001:02:34
604307MISTROLEONARDO1980S4CASTELFRANCO TRIATHL02:53:5019:12:45.0501:02:36
605407DI FONZODARIO1985S3THE HURRICANE S.S.D.02:54:0219:15:57.9501:02:48
606523REGGIANIALBERTO1987S3ATL. MDS PANARIAGROU02:54:1019:19:02.6001:02:56
607782LOCCILUIGI1963M3ASD TEAM HIBISCUS02:54:2219:22:16.1001:03:08
608518COSTAROBERTO1988S2ASD SPEZIA TRIATHLO02:54:2319:19:15.8501:03:09
609745BARIGOZZIANTONIO ALDO1968M2VERONA TRIATHLON02:54:3619:22:30.9501:03:22
610809MINORETTIALBERTO1981S4INDIVIDUALE02:54:4219:22:37.0501:03:28
611645ZANCANLUCA1976M1SBR 3ATHLON02:55:0219:19:54.5501:03:48
612811CAPELLIMAURIZIO1981S4INDIVIDUALE02:55:0919:23:03.7001:03:55
613498MARCONSTEFANO1993S1CASTELFRANCO TRIATHL02:55:1019:20:02.4001:03:56
614828ANTIDORMIFABIO1968M2INDIVIDUALE02:55:2319:23:17.7501:04:09
615545LO PRESTIPATRICK1984S3CUS BRESCIA02:55:4519:20:37.4001:04:31
616795STENGHELSTEFANO1958M4ASD CNM TRIATHLON02:56:1219:24:06.9001:04:58
617826SACCONIALESSANDRO1969M2INDIVIDUALE02:56:1719:24:11.1501:05:03
618677MILZANIFRANCESCO1974M1TEAM BIKE GUSSAGO AS02:56:2319:24:17.5501:05:09
619772ROSSILORENZO1965M3VERONA TRIATHLON02:56:5219:24:46.3501:05:38
620458WURMENRICO1981S4TRI EVOLUTION02:57:0219:18:57.5501:05:48
621437VEZZALIFABRIZIO1972M2MB TRIATHLON02:57:0319:18:58.4501:05:49
622449AZZOLINIALBERTO1969M233 TT ASD02:57:1719:19:13.0001:06:03
623642FERRARIFRANCESCO1976M1TRI TEAM BRIANZA02:58:0419:22:56.3001:06:50
624350AMADUZZIGIAN PAOLO1964M3CUS UDINE02:58:0719:20:03.0501:06:53
625822TARTAGLIONEANTONIO1972M2INDIVIDUALE02:58:1719:26:11.4001:07:03
626722PELLALORENZO1970M2TRIATHLON CREMONA ST02:58:4019:26:34.4001:07:26
627563FERRETTIFRANCESCO1982S4FREEZONE02:58:4619:23:38.2501:07:32
628764GIACOMINIROBERTO1965M3CALYPSO TRIATHLON02:58:4919:26:43.8001:07:35
629760MORGANTIEMIDIO1966M3FLIPPER EIFFEL ASCOL02:59:2019:27:14.6501:08:06
630744SAPORITIMARCO1968M2TRI-WINNER FOLIGNO02:59:3319:27:27.1001:08:19
631786DEMICHELISVALERIO1961M4AQUATICA TORINO S.D.02:59:3919:27:33.2501:08:25
632625RIVASTEFANO FILIPPO1977M1HAPPY RUNNER CLUB02:59:4519:24:37.7001:08:31
633451CASADEIALESSIO1983S3TRIATHLON FAENZA02:59:4819:21:43.5501:08:34
634547DE PEDYSMATTEO1983S3PROPATRIA MILANO02:59:5219:24:44.3001:08:38
635667BONETTIEROS1974M1VERONA TRIATHLON02:59:5319:27:47.9001:08:39
636770BRUGALISIMONE1965M3STEEL T - BG02:59:5619:27:50.3001:08:42
637390FLORISGIANLUCA1974M1OLIMPIC TRIATHLON03:00:2619:22:21.8501:09:12
638725BOLZANMIRKO1970M2ASD VICENZA TRIATHLO03:00:4119:28:35.3001:09:27
639440GIUSSANIGIUSEPPE1971M2OXYGEN TRIATHLON03:00:5019:22:45.4001:09:36
640455BELLOTTICARLO1960M4DESENZANO TRIATHLON03:00:5219:22:47.8001:09:38
641715LA MARTINASANTO1971M2ATL. MDS PANARIAGROU03:01:5319:29:47.2501:10:39
642637TAGLIAMONTEGENNARO1976M1ASD SPEZIA TRIATHLO03:02:3919:27:31.1501:11:25
643830MANENTIANDREA1964M3INDIVIDUALE03:04:1419:32:08.9501:13:00
644723PINZUTIGIOVANNI1970M2SPARTANS BOLOGNA03:04:2819:32:22.1501:13:14
645561MARZOLODANIELE1982S4BUSTO ARSIZIO A.R.C.03:04:5819:29:50.6001:13:44
646776COSTAALESSANDRO1964M3TRIATHLON FAENZA03:05:0819:33:02.4001:13:54
647643SICARIPAOLO1976M1NJOY TRI VA03:05:2219:30:14.8001:14:08
648452BOSCARELLOANDREA1966M3JCT VIGEVANO03:05:3319:27:28.9501:14:19
649450ZANINIFABIO1960M4EUROPA SSD03:05:5019:27:45.9501:14:36
650711MILANMASSIMILIANO1971M2BUSTO ARSIZIO A.R.C.03:05:5919:33:53.8501:14:45
651638DI FRANCESCOANDREA1976M1THE HURRICANE S.S.D.03:06:1819:31:10.2001:15:04
652664FACCETTIYURI1974M1ASD CNM TRIATHLON03:06:4919:34:43.8501:15:35
653548DE PAOLAANDREA1983S3ASD SPEZIA TRIATHLO03:06:5019:31:42.3001:15:36
654331MANAIANTONIO1987S3ZEROTRENTA TRIATHLON03:07:1219:29:07.4001:15:58
655457BARZAGHIANDREA1972M2TRI TEAM BRIANZA03:07:2519:29:21.0501:16:11
656719ZAMBELLILUCA1970M2GALILEO TRIATHLON03:07:2919:35:24.0001:16:15
657460DE MARZISTEFANO1963M3CY LASER TRI SCHIO03:07:5219:29:47.6001:16:38
658789STRAMARESERGIO1960M4A303:07:5419:35:49.0501:16:40
659607FAEDDACARLO1978S4NJOY TRI VA03:08:1419:33:07.0001:17:00
660824BIASIOLIANDREA1971M2INDIVIDUALE03:08:5519:36:49.9501:17:41
661815FAZIONMORENO1979S4INDIVIDUALE03:08:5519:36:49.9501:17:41
662783RESCINITIMARCO1963M3OTRI 1 COMO03:09:0719:37:01.4501:17:53
663603ALBERTONLUCA1979S4TRIBU'03:09:4719:34:39.3001:18:33
664585BERTOLAZZILUIGI1980S4CY LASER TRI SCHIO03:10:3319:35:25.1001:19:19
665443TORACCAMARCO1970M2ASD SPEZIA TRIATHLO03:10:5319:32:48.2501:19:39
666647GUSSAGONICOLA1976M1FERALPI TRIATHLON03:11:2119:36:13.9001:20:07
667462MILANALESSANDRO1971M2A.S.D. RHODIGIUM TEA03:11:4019:33:35.2501:20:26
668741MARCHESINIMIRCO1968M2SPARTANS BOLOGNA03:12:2919:40:23.8501:21:15
669797SALICEROBERTO1957M5ROAD RUNNERS03:13:2819:41:22.2501:22:14
670608BRUGIOLOLUCA1978S4POL.CENTESE T&D03:13:4419:38:37.0001:22:30
671800SCIGLIANODAVIDE1993S1INDIVIDUALE03:14:3619:42:31.0501:23:22
672818TAMPELLAMAURO1977M1INDIVIDUALE03:15:5419:43:48.3501:24:40
673833BRAMBILLAMICHELE1963M3INDIVIDUALE03:15:5619:43:50.8501:24:42
674752DA RODDALUCIO1967M3A303:16:0319:43:57.5001:24:49
675773CAPPARODOLFO1965M3PROPATRIA MILANO03:16:1719:44:11.3001:25:03
676792GARBERICESARE1958M4OXYGEN TRIATHLON03:17:5819:45:52.8501:26:44
677476FIORIPAOLO1977M1THE HURRICANE S.S.D.03:18:1219:40:07.7001:26:58
678832ORTONACARLO1963M3INDIVIDUALE03:18:1619:46:10.2501:27:02
679834RANCATIGIOVANNI1963M3INDIVIDUALE03:18:1619:46:10.4001:27:02
680690GIULIANIDOMENICO1972M2STEEL T - BG03:18:1719:46:11.8001:27:03
681471GHISLANDIEZIO FRANCESCO1957M5TRIATHLON BERGAMO03:19:1719:41:12.2001:28:03
682821FERRARIGIUSEPPE1973M1INDIVIDUALE03:21:1619:49:10.2501:30:02
683769ANGIUONIROBERTO1965M3TRIATHLON CREMONA ST03:23:3819:51:32.9501:32:24
684614PLAZA MASSOTEUDIS1978S4RASCHIANI TRI PAVESE03:23:4819:48:40.7501:32:34
685474PRESEGLIOMASSIMO1957M5TEAM BIKE GUSSAGO AS03:24:2819:46:23.3501:33:14
686631FRUETTIZIANO1977M1TRAGUARDO VOLANTE03:25:4619:50:38.5001:34:32
687831FARAVELLISTEFANO1963M3INDIVIDUALE03:29:0019:56:54.3001:37:46
688648APRE'ROBERTO1976M1VERONA TRIATHLON03:31:5519:56:47.6001:40:41
689623BAIGUINIFRANCESCO1977M1STEEL T - BG03:32:1719:57:09.4001:41:03
690485ANANYEVIGOR1977M103:32:4119:54:36.3001:41:27
691704DORIALUCA1972M2SBR 3ATHLON03:39:5220:07:46.9501:48:38
692688GENTILINISTEFANO1973M1T.T. CESENATICO03:40:2220:08:16.9001:49:08
693464MARCHESIALBERTO1943M7DE RAN CLAB03:44:2020:06:15.4501:53:06
0550ALLEVIMATTEO1983S3IRONLARIOTRIATH02:09:0018:33:52.4500:17:46
0802BANFIFRANCESCO1990S2INDIVIDUALE02:15:1118:43:05.1500:23:57
0244BARBOTTIMICHELANGELO1971M2A.S.D. SESSANTALLORA02:23:4518:42:39.7000:32:31
0807CARCANGIUROBERTO1982S4INDIVIDUALE03:22:0119:49:55.4001:30:47
0397FELETTIMASSIMO1979S4T.D. RIMINI02:11:0818:33:03.1500:19:54
0467FERRILUCA1965M3GALILEO TRIATHLON02:55:2419:17:19.2501:04:10
0649FINOTTICRISTIAN1976M1A.S.D. RHODIGIUM TEA02:12:2418:37:16.5500:21:10
0699FRIGOGIUSEPPE1972M2VERONA TRIATHLON03:03:0619:31:00.9501:11:52
0117GRIGOLETTIDANIELE1984S3PESCHIERA TRI02:05:3818:21:32.4000:14:24
0610GUERRAFRANCESCO1978S4DE RAN CLAB02:39:5519:04:47.9500:48:41
0779LOVATOANDREA ALBERTO1964M3HAPPY RUNNER CLUB03:35:2620:03:20.1501:44:12
0835MARCHIORETTORINO1962M4INDIVIDUALE02:23:0318:50:58.0500:31:49
0301MARCHIORITHOMAS MARCO1962M4PESCHIERA TRI02:21:5518:40:49.9500:30:41
0388MARIANIROMEO1966M3VTT02:18:1118:40:06.1500:26:57
0344MAZZUCCHIMASSIMILIANO1978S4TRIIRON02:19:1518:41:10.2500:28:01
0793MELLIAGIUSEPPE1958M4GRANBIKE TRIATHLON02:22:1318:50:07.1500:30:59
0766MISTO'PIETRO1965M3OTRI 1 COMO02:41:3919:09:33.9000:50:25
0468MUSIGHMARCO1964M3CUS UDINE02:30:5518:52:50.9000:39:41
0413PELLEGRINOPAOLO1969M2RHO TRIATHLON CLUB02:26:5718:48:53.0000:35:43
0491PIRANILUCA1997S1THE HURRICANE S.S.D.01:52:4918:14:44.5500:01:35
0116ROSSETTIDANIELE1984S3TRYLOGY02:09:1018:25:04.2500:17:56
0431RUFFONIMAURIZIO1955M5ZEROTRENTA TRIATHLON02:55:2219:17:17.6001:04:08
0774RUSALENPAOLO1965M3FUMANE TRIATHLON02:30:1618:58:11.0000:39:02
0737SEGAGNIFABIO1969M2RASCHIANI TRI PAVESE03:35:2520:03:19.9501:44:11
0697SISSAMICHELE1972M2TEAM BIKE GUSSAGO AS02:23:5818:51:52.3500:32:44
0446SIVEROALBERTO1963M3PESCHIERA TRI02:42:5419:04:49.3000:51:40
0107VECCHIATTIGIAN LUIGI1975M1A.S.D. RHODIGIUM TEA02:02:0618:18:00.5500:10:52
0456VESENTINISIMONE1966M3VERONA TRIATHLON02:35:3818:57:33.1000:44:24
056VIGNILEONARDO1974M1SBR 302:00:3318:16:27.7500:09:19
FORNITORI UFFICIALI >>
ISTITUZIONI >>
MEDIA PARTNERS >>